This demonstration page uses our WeatherBlox Daily Observations layout. Learn more.

Left ArrowRight Arrow

Hourly Observations for April 3, 2022

Temp ( °F °C ) Dew Point ( °F °C ) Humidity (%) Winds ( mph kmh ) Pressure ( in mb ) Visibility ( mi km ) Precip ( " mm )
12:52 am 00:52 Clear 45 7.2 31 -0.6 58 58 E 3 6 30.09 1019 10 16 0.00 0.00
1:52 am 01:52 Clear 42 5.6 31 -0.6 65 65 E 6 9 30.09 1019 10 16 0.00 0.00
2:52 am 02:52 Clear 42 5.6 31 -0.6 65 65 ESE 7 11 30.07 1018 10 16 0.00 0.00
3:52 am 03:52 Clear 42 5.6 32 0 68 68 SE 8 13 30.06 1018 10 16 0.00 0.00
4:52 am 04:52 Clear 41 5 31 -0.6 67 67 SE 9 15 30.05 1018 10 16 0.00 0.00
5:52 am 05:52 Clear 42 5.6 32 0 68 68 SSE 12 19 30.05 1018 10 16 0.00 0.00
6:52 am 06:52 Clear 41 5 32 0 70 70 SSE 10 17 30.06 1018 10 16 0.00 0.00
7:52 am 07:52 Sunny 44 6.7 34 1.1 68 68 SSE 10 17 30.06 1018 10 16 0.00 0.00
8:52 am 08:52 Sunny 49 9.4 35 1.7 59 59 SSE 16 26 30.06 1018 10 16 0.00 0.00
9:52 am 09:52 Sunny 53 11.7 35 1.7 51 51 SSE 20 31 30.05 1018 10 16 0.00 0.00
10:52 am 10:52 Sunny 57 13.9 36 2.2 45 45 SE 16 26 30.03 1017 10 16 0.00 0.00
11:52 am 11:52 Sunny 61 16.1 37 2.8 41 41 SSE 17 28 30.03 1017 10 16 0.00 0.00
12:52 pm 12:52 Sunny 62 16.7 36 2.2 38 38 SSE 17 28 30.00 1016 10 16 0.00 0.00
1:52 pm 13:52 Sunny 64 17.8 38 3.3 38 38 SSE 15 24 29.98 1015 10 16 0.00 0.00
2:52 pm 14:52 Sunny 68 20 40 4.4 36 36 SSE 15 24 29.94 1014 10 16 0.00 0.00
3:52 pm 15:52 Sunny 68 20 40 4.4 36 36 SE 15 24 29.89 1012 10 16 0.00 0.00
4:52 pm 16:52 Partly Cloudy 66 18.9 39 3.9 37 37 SE 13 20 29.87 1012 10 16 0.00 0.00
5:52 pm 17:52 Mostly Cloudy 64 17.8 41 5 43 43 ESE 10 17 29.85 1011 10 16 0.00 0.00
6:52 pm 18:52 Mostly Cloudy 66 18.9 40 4.4 39 39 SE 14 22 29.84 1010 10 16 0.00 0.00
7:52 pm 19:52 Mostly Cloudy 63 17.2 39 3.9 41 41 SE 9 15 29.84 1011 10 16 0.00 0.00
8:52 pm 20:52 Mostly Cloudy 61 16.1 41 5 48 48 SSE 7 11 29.86 1011 10 16 0.00 0.00
9:52 pm 21:52 Cloudy 60 15.6 40 4.4 47 47 SSE 13 20 29.81 1009 10 16 0.00 0.00
10:52 pm 22:52 Mostly Clear 60 15.6 40 4.4 47 47 SSE 16 26 29.80 1009 10 16 0.00 0.00
11:52 pm 23:52 Cloudy 60 15.6 39 3.9 46 46 SSE 15 24 29.80 1009 10 16 0.00 0.00

Powered by AerisWeather